Regional Weather Roundup
Issued by NWS

Home | Current Version | Previous Version | Graphics & Text | Print | Product List | Glossary On
Versions: 1 2 3 4 5 6 7 8 9 10 11 12 13 14 15 16 17 18 19 20 21 22 23 24 25 26 27 28 29 30 31 32 33 34 35 36 37 38 39 40 41 42 43 44 45 46 47 48 49 50
862
ASUS43 KDMX 230301
RWRIA

WEATHER ROUNDUP FOR IOWA
NATIONAL WEATHER SERVICE DES MOINES IA
1000 PM CDT SAT APR 22 2017

NOTE: "FAIR" INDICATES FEW OR NO CLOUDS BELOW 12,000 FEET WITH NO
SIGNIFICANT WEATHER AND/OR OBSTRUCTIONS TO VISIBILITY.

* - THESE STATIONS ARE NOT NWS STATIONS...THUS NOT UNDER NWS
QUALITY CONTROL.  THEY ALSO DO NOT REPORT WEATHER SUCH
AS PRECIPITATION OR FOG.

IAZ001>003-012>014-020>022-031>034-043>046-230400-
   NORTHWEST IOWA

CITY           SKY/WX    TMP DP  RH WIND       PRES   REMARKS
CARROLL *      CLEAR     48  39  71 CALM      30.18R
CHEROKEE *     CLEAR     49  38  66 CALM      30.18S
DENISON *      CLEAR     50  37  62 CALM      30.21R
LE MARS *      CLEAR     50  39  66 CALM      30.19S
ORANGE CITY *  CLEAR     50  37  62 W7        30.17F
SHELDON *      CLEAR     55  36  47 SW6       30.15S
SIOUX CITY     CLEAR     55  34  45 S3        30.18F
SPENCER        CLEAR     52  35  52 SW6       30.16F
STORM LAKE *   CLEAR     57  30  35 W7        30.18S
$$

IAZ055>058-069>071-079>083-090>094-230400-
   SOUTHWEST IOWA

CITY           SKY/WX    TMP DP  RH WIND       PRES   REMARKS
ATLANTIC *     CLEAR     50  32  50 CALM      30.19R
AUDUBON *      CLEAR     43  37  81 CALM      30.20S
CLARINDA *     CLEAR     46  39  76 CALM      30.21R
COUNCIL BLFS * CLEAR     57  28  33 NE5       30.19S
CRESTON *      CLEAR     54  28  37 NE6       30.20R
HARLAN  *      CLEAR     48  36  61 CALM      30.22S
LAMONI         CLEAR     52  28  39 NE6       30.18R
RED OAK *      CLEAR     48  34  57 N3        30.20R
SHENANDOAH *   CLEAR     52  34  50 CALM      30.20R
$$

IAZ047>049-059>061-072>074-084-230400-
   CENTRAL IOWA

CITY           SKY/WX    TMP DP  RH WIND       PRES   REMARKS
AMES           CLEAR     47  39  74 CALM      30.17S
ANKENY *       CLEAR     48  36  61 CALM      30.19R
BOONE *        CLEAR     55  34  44 CALM      30.17S
CHARITON *     CLEAR     54  28  37 NE5       30.18R
DES MOINES     CLEAR     60  26  27 E5        30.18R
GRINNELL*      CLEAR     53  28  38 CALM      30.19R
KNOXVILLE *    CLEAR     55  27  33 NE5       30.17R
MARSHALLTOWN   CLEAR     54  29  38 CALM      30.17R
NEWTON *       CLEAR     55  27  33 CALM      30.17R
PELLA *        CLEAR     54  26  33 CALM      30.19R
PERRY *          N/A     55  28  35 CALM      30.18S
$$

IAZ004>006-015-016-023>025-035-036-230400-
   NORTH CENTRAL IOWA

CITY           SKY/WX    TMP DP  RH WIND       PRES   REMARKS
ALGONA *       CLEAR     54  37  54 SW7       30.17S
CLARION *      CLEAR     52  36  54 SE6       30.17S
ESTHERVILLE    CLEAR     51  37  58 SW6       30.15F
FORT DODGE *   CLEAR     50  34  53 E3        30.18S
MASON CITY     CLEAR     48  36  63 S5        30.17S
FOREST CITY *    N/A     46  32  57 CALM      30.16S
WEBSTER CITY * CLEAR     52  36  54 VRB3      30.16R
IOWA FALLS *     N/A     53  34  48 CALM      30.19R
$$

IAZ007>011-017>019-026>030-037>042-050>054-066-230400-
   NORTHEAST IOWA

CITY           SKY/WX    TMP DP  RH WIND       PRES   REMARKS
CEDAR RAPIDS   CLEAR     49  30  48 E5        30.16S
CHARLES CITY * PTCLDY    55  28  35 SW5       30.17R
CLINTON *      CLEAR     51  32  48 NE5       30.17S
DECORAH *      CLEAR     55  27  33 S3        30.15S
DUBUQUE        CLEAR     47  34  60 CALM      30.17R
MONTICELLO *   CLEAR     46  36  66 CALM      30.17R
OELWEIN *      CLEAR     52  32  46 S3        30.17S
WATERLOO       CLEAR     48  33  56 CALM      30.17R
$$

IAZ064-065-067-068-078-230400-
   EAST CENTRAL IOWA

CITY           SKY/WX    TMP DP  RH WIND       PRES   REMARKS
DAVENPORT      CLEAR     48  33  56 N8        30.17R
IOWA CITY      CLEAR     54  31  41 CALM      30.18R
MUSCATINE *    CLEAR     50  34  53 N6        30.17R
QUAD CITIES    CLEAR     48  38  68 CALM      30.15S
$$

IAZ062-063-075>077-085>089-095>099-230400-
   SOUTHEAST IOWA

CITY           SKY/WX    TMP DP  RH WIND       PRES   REMARKS
BURLINGTON     CLEAR     52  35  52 N9        30.14R
FAIRFIELD *    CLEAR     48  30  49 N8        30.16S
FORT MADISON * CLEAR     52  34  50 N3        30.16R
KEOKUK *       CLEAR     54  36  50 N3        30.14R
OSKALOOSA *      N/A     53  29  40 NE5       30.18R
CENTERVILLE *    N/A     48  32  53 CALM      30.18R
OTTUMWA        CLEAR     51  28  41 N6        30.17R
WASHINGTON *   CLEAR     52  30  43 N7        30.18R
$$

ABBREVIATIONS USED IN REMARKS
   TC - TEMPERATURES IN CELSIUS
  WCI - WIND CHILL INDEX
   HX - HEAT INDEX
  VSB - VISIBILITY
$$





USA.gov is the U.S. government's official web portal to all federal, state and local government web resources and services.